Location: Newark
(33.6333°S, 78.8500°W)
Time: 14:17:58
(UTC+00:00)

Courier 1B - All Passes

Search period start: 22 September 2019 00:00
Search period end: 02 October 2019 00:00
Orbit: 962 x 1209 km, 28.3° (Epoch: 21 September)

Date Brightness Start Highest point End Pass type
(mag) Time Alt. Az. Time Alt. Az. Time Alt. Az.
22 Sep - 00:22:09 10° WNW 00:29:25 57° N 00:36:13 10° ENE visible
22 Sep - 02:16:31 10° W 02:23:15 45° NNW 02:29:36 10° ENE visible
22 Sep - 04:11:44 10° WNW 04:16:39 21° NNW 04:21:25 10° NNE night (unlit)
22 Sep - 19:43:33 10° N 19:48:03 16° NNE 19:52:30 10° ENE daylight
22 Sep - 21:34:40 10° NW 21:41:41 38° NNE 21:48:24 10° E daylight
22 Sep - 23:28:12 10° WNW 23:35:36 56° N 23:42:33 10° E visible
23 Sep - 01:22:30 10° W 01:29:32 51° N 01:36:08 10° ENE visible
23 Sep - 03:17:21 10° W 03:23:05 27° NNW 03:28:34 10° NNE visible
23 Sep - 18:51:44 10° NNE 18:54:19 12° NNE 18:56:54 10° NE daylight
23 Sep - 20:41:09 10° NW 20:47:53 32° NNE 20:54:24 10° E daylight
23 Sep - 22:34:17 10° WNW 22:41:45 53° N 22:48:50 10° E daylight
24 Sep - 00:28:28 10° W 00:35:45 56° N 00:42:35 10° ENE visible
24 Sep - 02:23:07 10° W 02:29:28 34° NNW 02:35:28 10° NE visible
24 Sep - 04:20:05 10° NW 04:22:42 12° NNW 04:25:16 10° N night (unlit)
24 Sep - 19:47:50 10° NNW 19:54:05 26° NNE 20:00:15 10° ENE daylight
24 Sep - 21:40:27 10° WNW 21:47:54 49° NNE 21:55:02 10° E daylight
24 Sep - 23:34:27 10° W 23:41:56 58° N 23:48:58 10° ENE visible
25 Sep - 01:28:57 10° W 01:35:47 41° NNW 01:42:12 10° NE visible
25 Sep - 03:24:44 10° WNW 03:29:09 18° NNW 03:33:25 10° N visible
25 Sep - 18:54:49 10° NNW 19:00:20 21° NNE 19:05:48 10° ENE daylight
25 Sep - 20:46:42 10° NW 20:54:02 43° NNE 21:01:10 10° E daylight
25 Sep - 22:40:28 10° WNW 22:48:04 59° N 22:55:17 10° ENE daylight
26 Sep - 00:34:52 10° W 00:42:03 48° NNW 00:48:47 10° ENE visible
26 Sep - 02:30:04 10° WNW 02:35:34 24° NNW 02:40:50 10° NNE visible
26 Sep - 18:02:17 10° N 18:06:35 16° NNE 18:10:54 10° ENE daylight
26 Sep - 19:53:05 10° NW 20:00:12 37° NNE 20:07:11 10° E daylight
26 Sep - 21:46:31 10° WNW 21:54:10 57° N 22:01:31 10° E daylight
26 Sep - 23:40:48 10° W 23:48:14 53° N 23:55:16 10° ENE visible
27 Sep - 01:35:40 10° W 01:41:57 30° NNW 01:47:54 10° NE visible
27 Sep - 17:11:05 10° NNE 17:12:53 11° NNE 17:14:41 10° NE daylight
27 Sep - 18:59:40 10° NW 19:06:22 31° NNE 19:13:03 10° E daylight
27 Sep - 20:52:38 10° WNW 21:00:15 54° N 21:07:41 10° E daylight
27 Sep - 22:46:46 10° W 22:54:22 57° N 23:01:38 10° ENE daylight
28 Sep - 00:41:24 10° W 00:48:14 37° NNW 00:54:43 10° NE visible
28 Sep - 02:37:56 10° WNW 02:41:35 14° NNW 02:45:08 10° N visible
28 Sep - 18:06:29 10° NNW 18:12:35 25° NNE 18:18:44 10° ENE daylight
28 Sep - 19:58:52 10° WNW 20:06:22 49° NNE 20:13:48 10° E daylight
28 Sep - 21:52:45 10° WNW 22:00:28 59° N 22:07:54 10° ENE daylight
28 Sep - 23:47:15 10° W 23:54:29 44° NNW 00:01:21 10° NE visible
29 Sep - 01:42:51 10° WNW 01:47:59 20° NNW 01:52:55 10° NNE visible
29 Sep - 17:13:39 10° NNW 17:18:50 19° NNE 17:24:06 10° ENE daylight
29 Sep - 19:05:12 10° NW 19:12:29 43° NNE 19:19:47 10° E daylight
29 Sep - 20:58:49 10° WNW 21:06:33 59° N 21:14:07 10° E daylight
29 Sep - 22:53:09 10° W 23:00:39 50° NNW 23:07:50 10° ENE daylight
30 Sep - 00:48:14 10° W 00:54:20 26° NNW 01:00:08 10° NNE visible
30 Sep - 16:21:25 10° N 16:25:08 14° NNE 16:28:55 10° ENE daylight
30 Sep - 18:11:43 10° NW 18:18:38 36° NNE 18:25:41 10° E daylight
30 Sep - 20:04:56 10° WNW 20:12:37 57° N 20:20:15 10° E daylight
30 Sep - 21:59:06 10° W 22:06:46 55° N 22:14:11 10° ENE daylight
30 Sep - 23:53:52 10° W 00:00:37 33° NNW 00:07:04 10° NE visible
01 Oct - 01:51:41 10° NW 01:53:57 11° NNW 01:56:11 10° NNW visible
01 Oct - 17:18:26 10° NNW 17:24:50 30° NNE 17:31:26 10° E daylight
01 Oct - 19:11:09 10° WNW 19:18:41 53° N 19:26:18 10° E daylight
01 Oct - 21:05:07 10° W 21:12:51 59° N 21:20:26 10° ENE daylight
01 Oct - 22:59:39 10° W 23:06:51 40° NNW 23:13:45 10° NE daylight
